Time,TemperatureF,DewpointF,PressureIn,WindDirection,WindDirectionDegrees,WindSpeedMPH,WindSpeedGustMPH,Humidity,HourlyPrecipIn,Conditions,Clouds,dailyrainin,SolarRadiationWatts/m^2,SoftwareType,DateUTC
2013-07-28 00:02:00,70.0,42.0,-100.00,WSW,243,12.0,17.0,36,0.00,,,0.00,0.000000,,2013-07-28 07:02:00,
2013-07-28 00:12:00,70.0,42.0,-100.00,WSW,243,12.0,17.0,36,0.00,,,0.00,0.000000,,2013-07-28 07:12:00,
2013-07-28 00:22:00,70.0,42.0,-100.00,WSW,243,12.0,17.0,36,0.00,,,0.00,0.000000,,2013-07-28 07:22:00,
2013-07-28 01:12:00,71.0,46.0,-100.00,WSW,257,12.0,18.0,41,0.00,,,0.00,0.000000,,2013-07-28 08:12:00,
2013-07-28 01:22:00,71.0,46.0,-100.00,WSW,257,12.0,18.0,41,0.00,,,0.00,0.000000,,2013-07-28 08:22:00,
2013-07-28 02:12:00,70.0,48.0,-100.00,WSW,253,13.0,17.0,45,-99.99,,,0.00,0.000000,,2013-07-28 09:12:00,
2013-07-28 03:02:00,69.0,48.0,-100.00,WSW,239,13.0,20.0,48,-99.99,,,0.00,0.000000,,2013-07-28 10:02:00,
2013-07-28 03:12:00,69.0,48.0,-100.00,WSW,239,13.0,20.0,48,-99.99,,,0.00,0.000000,,2013-07-28 10:12:00,
2013-07-28 03:22:00,69.0,48.0,-100.00,WSW,239,13.0,20.0,48,-99.99,,,0.00,0.000000,,2013-07-28 10:22:00,
2013-07-28 03:53:00,69.0,48.0,-100.00,SW,236,13.0,18.0,47,-99.99,,,0.00,0.000000,,2013-07-28 10:53:00,
2013-07-28 04:02:00,69.0,48.0,-100.00,SW,236,13.0,18.0,47,-99.99,,,0.00,0.000000,,2013-07-28 11:02:00,
2013-07-28 04:12:00,69.0,48.0,-100.00,SW,236,13.0,18.0,47,-99.99,,,0.00,0.000000,,2013-07-28 11:12:00,
2013-07-28 04:22:00,69.0,48.0,-100.00,SW,236,13.0,18.0,47,-99.99,,,0.00,0.000000,,2013-07-28 11:22:00,
2013-07-28 04:54:00,68.0,47.0,-100.00,WSW,254,13.0,19.0,47,-99.99,,,0.00,0.000000,,2013-07-28 11:54:00,
2013-07-28 05:02:00,68.0,47.0,-100.00,WSW,254,13.0,19.0,47,-99.99,,,0.00,0.000000,,2013-07-28 12:02:00,
2013-07-28 05:12:00,68.0,47.0,-100.00,WSW,254,13.0,19.0,47,-99.99,,,0.00,0.000000,,2013-07-28 12:12:00,
2013-07-28 05:22:00,68.0,47.0,-100.00,WSW,254,13.0,19.0,47,-99.99,,,0.00,0.000000,,2013-07-28 12:22:00,
2013-07-28 05:53:00,67.0,48.0,-100.00,WSW,238,12.0,20.0,50,-99.99,,,0.00,0.000000,,2013-07-28 12:53:00,
2013-07-28 06:02:00,67.0,48.0,-100.00,WSW,238,12.0,20.0,50,-99.99,,,0.00,0.000000,,2013-07-28 13:02:00,
2013-07-28 06:12:00,67.0,48.0,-100.00,WSW,238,12.0,20.0,50,-99.99,,,0.00,0.000000,,2013-07-28 13:12:00,
2013-07-28 06:22:00,67.0,48.0,-100.00,WSW,238,12.0,20.0,50,-99.99,,,0.00,0.000000,,2013-07-28 13:22:00,
2013-07-28 07:53:00,60.0,46.0,-100.00,WSW,247,12.0,18.0,59,-99.99,,,0.00,74.000000,,2013-07-28 14:53:00,
2013-07-28 08:02:00,60.0,46.0,-100.00,WSW,247,12.0,18.0,59,-99.99,,,0.00,74.000000,,2013-07-28 15:02:00,
2013-07-28 08:12:00,60.0,46.0,-100.00,WSW,247,12.0,18.0,59,-99.99,,,0.00,74.000000,,2013-07-28 15:12:00,
2013-07-28 08:22:00,60.0,46.0,-100.00,WSW,247,12.0,18.0,59,-99.99,,,0.00,74.000000,,2013-07-28 15:22:00,
2013-07-28 08:53:00,58.0,54.0,-100.00,WSW,258,12.0,16.0,85,0.00,,,0.00,257.000000,,2013-07-28 15:53:00,
2013-07-28 09:02:00,58.0,54.0,-100.00,WSW,258,12.0,16.0,85,0.00,,,0.00,257.000000,,2013-07-28 16:02:00,
2013-07-28 09:12:00,58.0,54.0,-100.00,WSW,258,12.0,16.0,85,0.00,,,0.00,257.000000,,2013-07-28 16:12:00,
2013-07-28 09:22:00,58.0,54.0,-100.00,WSW,258,12.0,16.0,85,0.00,,,0.00,257.000000,,2013-07-28 16:22:00,
2013-07-28 09:52:00,66.0,58.0,-100.00,WSW,253,10.0,15.0,76,0.00,,,0.00,449.000000,,2013-07-28 16:52:00,
2013-07-28 10:02:00,66.0,58.0,-100.00,WSW,253,10.0,15.0,76,0.00,,,0.00,449.000000,,2013-07-28 17:02:00,
2013-07-28 10:12:00,66.0,58.0,-100.00,WSW,253,10.0,15.0,76,0.00,,,0.00,449.000000,,2013-07-28 17:12:00,
2013-07-28 10:53:00,69.0,53.0,-100.00,West,267,9.0,13.0,57,0.00,,,0.00,624.000000,,2013-07-28 17:53:00,
2013-07-28 11:02:00,69.0,53.0,-100.00,West,267,9.0,13.0,57,0.00,,,0.00,624.000000,,2013-07-28 18:02:00,
2013-07-28 11:12:00,69.0,53.0,-100.00,West,267,9.0,13.0,57,0.00,,,0.00,624.000000,,2013-07-28 18:12:00,
2013-07-28 11:22:00,69.0,53.0,-100.00,West,267,9.0,13.0,57,0.00,,,0.00,624.000000,,2013-07-28 18:22:00,
2013-07-28 11:52:00,70.0,54.0,-100.00,West,270,11.0,16.0,57,0.00,,,0.00,773.000000,,2013-07-28 18:52:00,
2013-07-28 12:02:00,70.0,54.0,-100.00,West,270,11.0,16.0,57,0.00,,,0.00,773.000000,,2013-07-28 19:02:00,
2013-07-28 12:12:00,70.0,54.0,-100.00,West,270,11.0,16.0,57,0.00,,,0.00,773.000000,,2013-07-28 19:12:00,
2013-07-28 12:22:00,70.0,54.0,-100.00,West,270,11.0,16.0,57,0.00,,,0.00,773.000000,,2013-07-28 19:22:00,
2013-07-28 12:52:00,74.0,52.0,-100.00,West,273,10.0,16.0,47,0.00,,,0.00,873.000000,,2013-07-28 19:52:00,
2013-07-28 13:02:00,74.0,52.0,-100.00,West,273,10.0,16.0,47,0.00,,,0.00,873.000000,,2013-07-28 20:02:00,
2013-07-28 13:12:00,74.0,52.0,-100.00,West,273,10.0,16.0,47,0.00,,,0.00,873.000000,,2013-07-28 20:12:00,
2013-07-28 13:22:00,74.0,52.0,-100.00,West,273,10.0,16.0,47,0.00,,,0.00,873.000000,,2013-07-28 20:22:00,
2013-07-28 13:53:00,73.0,53.0,-100.00,West,270,16.0,20.0,49,0.00,,,0.00,927.000000,,2013-07-28 20:53:00,
2013-07-28 14:02:00,73.0,53.0,-100.00,West,270,16.0,20.0,49,0.00,,,0.00,927.000000,,2013-07-28 21:02:00,
2013-07-28 14:12:00,73.0,53.0,-100.00,West,270,16.0,20.0,49,0.00,,,0.00,927.000000,,2013-07-28 21:12:00,
2013-07-28 14:22:00,73.0,53.0,-100.00,West,270,16.0,20.0,49,0.00,,,0.00,927.000000,,2013-07-28 21:22:00,
2013-07-28 14:52:00,73.0,50.0,-100.00,West,269,20.0,25.0,45,0.00,,,0.00,923.000000,,2013-07-28 21:52:00,
2013-07-28 15:01:00,73.0,50.0,-100.00,West,269,20.0,25.0,45,0.00,,,0.00,923.000000,,2013-07-28 22:01:00,
2013-07-28 15:12:00,73.0,50.0,-100.00,West,269,20.0,25.0,45,0.00,,,0.00,923.000000,,2013-07-28 22:12:00,
2013-07-28 15:22:00,73.0,50.0,-100.00,West,269,20.0,25.0,45,0.00,,,0.00,923.000000,,2013-07-28 22:22:00,
2013-07-28 15:52:00,73.0,49.0,-100.00,West,270,20.0,27.0,43,0.00,,,0.00,865.000000,,2013-07-28 22:52:00,
2013-07-28 16:03:00,73.0,49.0,-100.00,West,270,20.0,27.0,43,0.00,,,0.00,865.000000,,2013-07-28 23:03:00,
2013-07-28 16:12:00,73.0,49.0,-100.00,West,270,20.0,27.0,43,0.00,,,0.00,865.000000,,2013-07-28 23:12:00,
2013-07-28 16:22:00,73.0,49.0,-100.00,West,270,20.0,27.0,43,0.00,,,0.00,865.000000,,2013-07-28 23:22:00,
2013-07-28 16:53:00,76.0,50.0,-100.00,West,273,19.0,24.0,40,0.00,,,0.00,755.000000,,2013-07-28 23:53:00,
2013-07-28 17:02:00,76.0,50.0,-100.00,West,273,19.0,24.0,40,0.00,,,0.00,755.000000,,2013-07-29 00:02:00,
2013-07-28 17:12:00,76.0,50.0,-100.00,West,273,19.0,24.0,40,0.00,,,0.00,755.000000,,2013-07-29 00:12:00,
2013-07-28 17:21:00,76.0,50.0,-100.00,West,273,19.0,24.0,40,0.00,,,0.00,755.000000,,2013-07-29 00:21:00,
2013-07-28 17:52:00,76.0,50.0,-100.00,West,272,17.0,22.0,40,0.00,,,0.00,600.000000,,2013-07-29 00:52:00,
2013-07-28 18:02:00,76.0,50.0,-100.00,West,272,17.0,22.0,40,0.00,,,0.00,600.000000,,2013-07-29 01:02:00,
2013-07-28 18:12:00,76.0,50.0,-100.00,West,272,17.0,22.0,40,0.00,,,0.00,600.000000,,2013-07-29 01:12:00,
2013-07-28 19:00:00,71.0,47.0,-100.00,West,272,15.0,20.0,42,0.00,,,0.00,420.000000,,2013-07-29 02:00:00,
2013-07-28 19:12:00,71.0,47.0,-100.00,West,272,15.0,20.0,42,0.00,,,0.00,420.000000,,2013-07-29 02:12:00,
2013-07-28 19:58:00,66.0,48.0,-100.00,West,269,13.0,20.0,53,0.00,,,0.00,231.000000,,2013-07-29 02:58:00,
2013-07-28 20:14:00,66.0,48.0,-100.00,West,269,13.0,20.0,53,0.00,,,0.00,231.000000,,2013-07-29 03:14:00,
2013-07-28 20:22:00,66.0,48.0,-100.00,West,269,13.0,20.0,53,0.00,,,0.00,231.000000,,2013-07-29 03:22:00,
2013-07-28 20:58:00,71.0,42.0,-100.00,SW,225,12.0,19.0,35,0.00,,,0.00,26.000000,,2013-07-29 03:58:00,
2013-07-28 21:12:00,71.0,42.0,-100.00,SW,225,12.0,19.0,35,0.00,,,0.00,26.000000,,2013-07-29 04:12:00,